Wind_Speed
83 82 77 70 65 63 62 60 57 58 63 65 66 65 65 65 64 66 62 52 55 58 53 53 46 37 37 39 40 40 40 43 47 49 51 53 53 54 48 39 38 42 41 43 49 54 55 54 52 48 45 47 51 50 47 44 41 36 35 37 35 32 29 28 29 26 25 27 29 27 22 17 19 29 37 39 37 38 41 41 43 45 46 48 50 51
85 79 71 66 66 66 65 62 59 60 63 64 64 64 64 64 64 65 62 54 56 58 54 49 42 37 38 37 35 36 36 40 44 45 47 51 54 57 57 50 43 40 39 41 46 50 52 50 49 49 47 48 50 51 50 46 44 40 36 36 35 33 31 31 32 30 27 28 31 30 27 25 28 37 43 43 42 44 45 46 49 51 50 50 52 53
82 73 67 69 72 71 67 64 62 62 63 63 63 64 64 64 63 64 64 59 56 58 55 47 41 40 37 33 33 34 37 42 45 44 44 49 53 55 58 55 46 40 41 45 48 52 52 50 49 49 48 50 51 50 49 48 47 45 40 38 36 35 34 34 35 34 30 30 34 33 31 31 32 39 43 44 45 47 48 51 54 53 51 52 54 53
76 70 70 74 75 72 68 66 65 64 64 62 62 62 60 62 62 62 66 60 53 57 57 47 42 40 35 33 33 35 37 41 44 45 45 47 50 53 54 53 46 40 43 46 48 52 53 52 49 45 45 49 51 50 49 47 44 43 42 40 37 37 37 36 36 37 34 33 37 37 35 32 32 38 42 44 47 49 51 54 54 53 54 55 55 54
75 73 75 76 75 73 70 68 66 64 64 61 60 59 58 61 60 61 67 60 52 60 58 44 41 41 38 37 36 36 37 38 41 43 45 46 48 49 49 51 45 38 42 46 48 51 52 53 51 46 44 47 50 50 49 48 43 41 42 40 39 38 37 36 36 37 37 37 40 41 39 36 35 39 44 47 50 52 54 55 54 56 58 57 56 55
79 79 79 77 75 74 71 67 65 65 64 61 58 56 56 58 59 63 69 61 55 61 56 42 42 44 42 40 39 40 40 40 40 42 43 43 45 46 46 50 44 37 42 47 48 49 50 52 52 47 43 45 48 49 50 51 45 40 41 41 40 39 37 36 35 35 36 38 41 41 40 42 42 44 47 49 51 53 55 56 58 60 59 57 56 54
82 81 80 77 75 73 70 67 65 67 66 60 55 53 53 57 63 69 68 58 55 61 55 45 45 47 45 43 42 42 42 41 39 39 40 40 42 44 44 45 41 38 44 48 49 51 52 52 51 47 43 43 46 47 49 51 46 40 40 41 39 38 37 38 38 38 36 35 37 37 39 42 44 46 48 51 52 54 57 60 61 60 58 57 55 53
83 81 79 77 75 73 70 67 66 67 64 56 52 52 55 62 69 69 63 57 58 63 59 51 49 49 47 46 44 44 42 41 40 39 40 41 42 40 39 39 38 39 45 50 53 54 54 53 50 48 47 45 46 47 48 49 46 41 41 42 40 38 38 39 41 41 38 35 36 38 40 43 44 46 49 52 55 58 62 62 60 58 57 56 54 53
81 80 78 76 74 72 71 67 65 67 61 54 53 57 62 67 67 62 58 58 61 64 61 55 52 50 47 46 45 43 40 39 42 44 44 43 41 39 39 39 37 38 45 52 56 57 56 54 51 49 49 47 47 48 48 48 47 43 42 43 43 42 41 40 40 41 40 39 39 39 41 43 45 48 52 56 59 61 60 58 57 56 56 55 53 53
81 80 79 76 74 73 71 67 66 67 60 56 59 62 65 66 62 59 58 58 61 63 60 56 55 52 49 48 45 42 41 42 45 47 46 43 39 36 37 39 36 33 42 51 55 57 55 53 51 48 48 48 47 49 50 50 49 47 44 44 44 43 43 42 41 41 42 42 41 40 41 44 47 52 55 58 59 57 55 55 55 55 54 54 54 54
83 82 80 77 74 73 70 68 71 68 60 60 64 63 63 62 60 59 58 57 61 62 59 58 58 55 53 52 47 45 46 45 45 44 43 42 39 35 36 40 35 32 40 49 51 53 52 50 49 46 46 47 48 49 52 53 53 52 49 47 46 44 44 45 43 43 43 43 43 44 47 50 53 55 56 56 55 54 54 55 55 55 55 55 56 57
85 82 80 76 74 74 73 73 72 64 60 65 66 63 63 62 58 57 56 58 61 60 58 59 60 57 55 53 50 50 50 47 46 44 43 44 42 39 40 41 35 35 44 51 51 51 52 51 48 46 45 46 47 50 53 55 55 54 52 51 48 45 46 49 48 45 44 44 45 48 51 54 55 56 56 56 56 55 55 55 55 56 57 57 59 61
82 79 78 77 78 78 76 74 69 63 65 69 65 62 61 57 54 54 57 59 59 56 56 60 62 61 59 56 54 54 52 49 48 48 47 47 46 45 46 43 41 45 50 53 54 54 54 53 50 48 47 47 48 50 53 56 57 57 55 52 50 47 46 49 50 48 47 48 50 52 55 57 57 56 55 55 55 55 55 55 56 57 59 61 62 65
80 80 81 82 81 77 73 70 65 62 66 67 61 57 54 51 49 51 54 56 55 54 56 60 63 62 61 59 56 56 55 51 50 49 48 48 48 49 50 48 50 54 56 56 57 57 56 55 53 51 49 48 48 49 52 56 58 59 57 54 52 49 47 49 51 51 52 53 55 59 60 59 58 56 55 55 55 56 57 58 60 62 64 66 67 70
83 81 79 77 73 67 66 65 61 61 65 64 59 54 51 50 48 49 52 53 52 54 57 59 61 61 61 61 58 57 57 54 51 50 49 48 51 52 53 55 58 60 61 60 60 59 57 56 54 53 52 50 49 49 52 56 58 60 60 58 55 51 50 53 53 53 54 56 59 61 61 60 60 59 59 59 59 60 62 64 66 68 69 70 72 74
84 77 73 70 67 66 67 66 63 66 68 65 59 52 50 52 50 51 54 54 55 57 58 57 58 60 61 61 59 55 56 57 55 51 49 50 52 53 53 55 59 62 62 61 61 60 58 57 56 54 53 52 51 50 52 55 58 61 62 61 59 56 54 56 57 57 58 60 62 63 64 64 64 64 64 64 65 66 67 69 70 71 72 74 75 77
81 74 70 70 70 69 68 67 67 68 68 63 57 49 49 52 52 53 56 56 57 57 56 56 57 59 59 58 59 55 53 56 55 52 52 52 52 53 54 56 56 58 61 60 60 60 60 59 58 57 55 53 53 52 53 54 57 60 62 62 63 62 60 60 62 63 64 65 67 67 67 68 68 69 69 69 69 70 71 73 73 74 75 77 78 80
78 72 69 70 71 69 68 70 69 67 66 60 52 49 53 56 55 55 56 56 57 55 54 55 57 57 56 57 58 55 52 52 51 51 55 56 56 58 60 60 58 57 58 59 59 58 58 58 59 58 57 56 55 55 54 55 56 58 61 62 64 65 65 65 66 68 70 71 71 71 71 71 72 72 72 73 74 75 75 76 77 78 79 80 82 83
76 73 72 73 72 71 72 72 66 64 65 57 52 54 57 56 54 53 52 53 54 52 51 53 54 53 54 56 57 56 55 51 47 49 55 57 59 61 60 59 59 58 57 58 58 58 57 57 58 59 59 59 58 57 56 56 56 58 61 63 65 66 67 68 69 70 72 74 74 75 74 74 74 75 75 76 77 77 78 78 79 80 81 82 82 82
76 75 75 75 73 72 72 67 61 63 63 56 54 57 56 53 52 50 49 51 51 49 48 52 52 50 51 54 55 57 57 54 49 49 53 55 56 59 59 58 59 60 59 59 58 58 58 58 58 58 59 60 60 60 59 58 58 59 61 64 67 68 69 70 70 71 72 73 75 75 75 75 75 75 76 77 78 78 79 80 80 81 81 81 81 81
76 74 73 74 73 71 68 62 60 63 61 54 52 54 53 51 50 48 49 50 50 48 49 51 50 47 51 53 53 56 56 54 53 53 54 56 56 56 56 58 61 62 63 63 62 61 60 59 59 58 58 59 59 61 61 60 60 60 62 64 67 69 71 71 72 72 72 73 74 74 75 75 75 75 76 77 78 78 79 79 80 80 80 80 79 79
76 72 73 75 72 67 64 61 62 63 59 53 52 54 53 49 48 48 48 48 48 47 49 50 48 47 51 52 52 55 55 53 54 56 57 58 60 59 58 59 62 62 63 64 64 63 61 61 61 61 60 60 60 60 61 61 61 61 62 64 66 68 71 72 72 73 73 73 73 74 74 74 75 76 76 77 77 78 78 79 79 79 79 79 78 78
73 70 73 73 68 63 62 61 62 61 58 56 56 55 52 48 49 47 44 44 45 46 48 49 48 49 51 51 52 54 55 54 54 57 59 60 61 63 61 59 59 58 58 58 59 60 60 60 61 62 63 63 62 61 61 62 62 62 62 63 64 66 68 69 71 71 72 73 73 73 74 74 75 75 76 77 77 77 78 78 78 78 78 78 77 76
71 69 70 68 63 63 64 64 63 60 57 56 56 53 50 49 48 45 44 45 46 47 49 49 49 50 50 50 51 52 55 56 54 56 59 60 61 62 59 57 56 57 58 58 58 59 60 61 62 63 63 63 62 61 60 61 61 62 62 62 62 63 65 66 67 68 70 71 72 73 73 73 74 75 76 76 76 77 77 77 77 76 76 75 75 74
68 67 66 63 61 63 65 64 62 57 55 55 53 52 50 49 47 46 48 50 50 50 51 49 49 49 48 48 49 50 54 55 53 53 55 57 59 60 59 58 58 58 60 60 59 59 59 59 60 60 61 61 61 60 59 59 60 60 61 61 61 61 62 63 64 65 67 68 69 70 71 71 72 73 74 75 75 75 74 74 74 73 73 73 73 73
65 64 62 60 59 60 59 56 52 50 53 54 51 50 50 48 46 47 50 51 49 49 49 49 49 48 48 49 48 49 52 53 52 51 52 55 59 61 62 62 62 61 59 57 56 57 57 56 56 56 56 57 57 58 58 59 59 59 60 60 60 60 61 61 62 63 64 65 65 66 67 68 69 70 71 71 71 71 71 71 71 72 72 72 72 72
63 61 60 60 60 59 56 52 50 51 53 52 49 48 49 48 46 47 48 48 47 46 47 48 48 46 47 50 50 51 52 53 52 51 52 54 60 63 62 60 61 60 57 53 53 54 54 54 54 54 55 55 56 56 57 58 58 58 59 58 59 59 60 60 61 61 62 63 63 64 65 66 67 68 68 69 69 69 70 70 70 71 71 71 71 71
61 59 60 61 61 59 57 56 55 54 53 51 48 47 49 48 45 45 46 47 47 47 47 47 47 45 44 47 49 50 51 51 52 53 51 51 54 58 57 55 56 57 55 53 52 53 53 53 53 53 54 54 55 55 56 56 57 58 57 57 58 59 60 59 60 60 61 61 62 63 64 65 66 67 67 67 68 68 68 69 69 69 69 70 70 71
59 58 60 61 60 60 60 58 55 54 52 50 47 46 48 47 44 43 45 47 48 47 47 48 48 45 44 45 46 46 48 49 50 51 50 49 51 52 52 51 52 52 52 52 52 52 53 52 51 51 52 53 54 54 54 55 56 56 56 56 57 58 59 58 59 59 60 60 61 63 64 64 65 66 66 66 66 67 67 68 68 68 69 69 70 71
59 59 61 61 61 61 60 57 54 54 52 49 46 47 49 47 45 46 48 49 49 48 48 49 48 46 46 46 46 46 47 47 47 48 49 51 51 51 52 52 52 52 52 53 53 53 52 51 50 50 51 52 52 52 53 54 55 55 54 54 55 57 57 57 57 58 59 60 61 62 63 64 65 65 65 65 65 65 66 66 67 67 68 69 70 71
61 62 62 62 61 60 58 54 54 54 52 50 49 49 49 47 46 46 48 48 48 49 50 50 49 48 48 48 46 47 48 48 49 50 50 50 52 53 54 54 54 54 54 54 54 55 54 53 52 52 52 53 52 52 52 53 53 53 53 53 55 55 55 55 56 57 58 59 61 62 63 64 64 64 64 64 64 64 65 65 66 67 68 69 70 70
62 61 61 60 58 57 55 52 52 53 51 48 48 48 48 46 45 46 47 47 47 48 50 51 51 51 51 51 50 49 49 50 52 52 51 51 52 54 54 54 54 54 54 55 55 56 56 55 54 54 55 55 54 53 53 53 53 54 54 54 55 54 54 55 56 56 57 58 60 61 62 63 63 63 62 62 63 63 64 65 65 66 67 68 69 70
59 58 58 57 55 54 53 52 53 53 48 45 45 45 46 46 45 47 48 47 47 48 50 51 52 53 54 53 52 51 50 51 54 55 54 53 53 54 55 55 55 55 55 56 57 57 57 56 57 58 58 57 56 55 55 55 56 56 56 55 55 55 55 55 56 56 56 58 59 60 62 62 62 62 62 62 62 63 63 64 65 66 67 68 69 70
57 55 56 55 53 53 53 53 52 49 45 44 44 46 48 48 47 47 48 47 47 49 50 50 52 54 54 54 54 53 52 55 58 57 56 55 55 57 58 58 58 59 58 59 60 59 59 59 60 60 60 60 60 59 59 59 59 58 57 56 56 55 55 55 55 55 56 57 58 60 61 61 61 61 61 61 62 62 63 64 65 66 67 68 68 69
56 56 57 55 54 54 53 51 49 46 45 45 47 48 49 49 48 47 47 46 46 47 48 49 51 52 53 54 55 54 55 58 60 58 56 57 58 60 60 60 60 62 63 63 61 60 60 61 62 62 62 62 61 61 61 61 60 59 58 57 57 56 56 55 55 55 56 56 58 59 60 61 60 60 61 61 62 62 63 64 65 66 66 67 68 69
55 56 57 56 54 53 51 49 48 48 48 48 48 48 47 47 48 46 46 45 46 46 47 48 50 51 51 53 54 54 56 57 57 56 56 58 58 59 59 60 60 62 64 64 63 62 62 63 63 63 62 62 61 61 61 60 59 59 59 58 57 57 56 56 55 55 56 56 58 59 60 60 61 60 61 62 62 62 63 63 64 65 65 66 68 69
53 54 54 53 52 51 49 49 49 48 48 48 48 47 47 47 47 47 48 48 47 47 48 48 50 51 51 53 54 54 54 54 53 53 55 56 57 57 57 57 58 61 63 63 63 62 62 61 62 62 61 61 61 60 59 59 59 58 58 57 57 57 57 56 56 56 56 57 58 59 60 61 61 61 61 61 61 62 62 63 63 64 65 67 68 70
52 53 52 50 50 49 48 47 47 46 46 46 47 46 47 48 47 48 49 49 48 47 47 48 50 51 51 53 54 52 51 52 53 54 54 54 56 57 57 56 55 57 58 59 59 59 59 59 59 60 60 60 60 59 59 59 58 58 57 57 57 57 57 56 56 56 57 57 58 59 60 61 61 60 61 60 61 61 61 62 63 65 66 67 69 71
50 51 50 49 48 47 46 45 45 45 46 45 45 45 47 49 49 49 48 48 48 48 47 48 50 50 52 53 52 50 51 54 55 55 54 54 55 56 57 57 56 56 56 56 56 56 57 58 58 58 59 59 59 59 60 59 59 58 58 58 58 58 57 57 57 57 57 58 58 59 60 60 59 59 59 59 59 60 61 62 63 65 67 68 70 72
48 48 47 46 46 46 45 45 46 46 44 44 44 45 47 49 50 50 48 47 47 47 47 49 49 49 52 52 48 49 54 56 55 54 55 56 56 57 58 59 59 59 58 57 57 57 57 58 58 58 58 58 59 60 59 59 59 59 59 59 59 59 58 58 57 57 57 58 58 58 58 58 58 58 58 59 59 60 61 63 64 66 68 69 71 73
46 45 45 45 46 46 46 46 46 45 43 44 46 47 48 49 50 51 50 48 48 47 47 48 48 49 51 49 46 50 54 52 50 52 54 56 56 57 59 60 59 59 59 59 59 59 60 60 59 58 57 58 59 59 58 59 59 59 59 59 59 59 58 58 57 57 57 57 57 57 57 57 58 58 58 59 59 60 62 64 65 67 69 70 72 74
46 46 46 46 46 47 46 46 46 44 43 46 48 48 49 49 50 50 50 49 50 49 49 48 49 50 51 49 48 51 50 47 48 50 51 52 53 54 56 58 58 59 59 60 60 61 61 60 59 58 58 59 58 58 58 59 59 59 58 58 58 58 58 57 57 57 57 57 57 57 57 58 58 58 59 59 60 61 63 65 66 68 70 71 73 74
47 47 48 47 47 47 47 46 45 44 44 47 49 48 48 48 49 49 50 50 50 50 50 50 51 52 52 51 51 51 49 49 51 51 50 50 50 50 51 52 53 55 56 58 60 61 61 59 58 58 58 59 58 58 58 59 59 59 58 58 58 58 58 57 57 57 57 58 58 58 58 58 59 59 60 61 62 64 65 66 68 69 71 72 73 74
47 47 47 47 47 47 46 45 44 44 46 48 49 48 48 49 49 50 49 49 49 49 49 51 53 53 53 53 52 52 52 53 53 51 50 50 49 48 47 47 48 50 52 55 57 58 58 57 57 57 58 58 57 57 58 59 59 58 58 58 59 59 58 57 57 58 58 59 59 59 59 59 60 61 62 63 64 66 66 67 69 70 71 73 74 75
46 46 46 46 46 46 45 45 45 47 49 50 50 50 50 50 50 50 49 49 50 50 49 50 52 53 53 53 53 54 55 54 52 51 51 50 49 48 48 47 46 47 49 52 54 55 55 55 56 56 57 56 56 57 58 58 58 57 57 58 59 58 58 57 58 59 59 59 59 59 59 60 60 61 62 63 64 65 66 67 69 70 72 73 75 76
46 46 46 46 47 47 47 47 48 49 50 50 51 51 51 51 51 50 49 50 52 52 52 53 54 54 53 53 54 56 55 54 52 51 51 50 50 49 49 49 48 48 49 50 52 52 53 54 56 56 56 56 56 57 58 58 57 57 57 58 59 58 58 58 59 59 59 59 59 59 59 59 60 60 61 62 63 64 66 67 69 71 73 74 75 76
45 46 47 48 48 49 48 48 49 50 51 52 52 52 52 53 52 52 51 51 53 54 54 55 56 56 56 55 56 57 57 55 54 54 52 51 50 51 50 50 50 50 51 51 51 50 51 53 55 55 56 57 57 58 59 59 58 57 58 59 59 58 58 59 60 60 59 59 59 59 59 59 60 60 61 62 63 64 66 67 70 71 73 75 76 77
46 47 48 48 49 49 49 49 51 52 53 53 53 53 54 54 54 54 54 54 55 55 55 56 58 58 59 59 59 60 60 59 58 57 56 54 52 53 52 52 52 53 54 53 52 52 52 53 53 53 54 55 57 58 59 59 59 59 60 61 60 59 60 61 61 60 60 60 59 59 59 60 60 61 61 62 63 64 66 68 70 72 74 75 76 77
49 49 50 49 50 51 50 50 51 52 53 53 53 54 54 55 56 56 56 56 57 57 57 58 59 60 61 62 62 62 63 63 62 61 60 58 57 56 55 54 55 55 55 54 54 54 54 54 54 54 54 54 55 56 58 58 58 60 61 61 61 61 61 62 62 61 61 60 60 60 61 61 61 62 62 62 64 65 67 68 70 73 74 76 76 77
51 51 51 51 52 52 51 51 52 52 52 53 54 54 55 56 57 58 58 58 59 59 59 60 61 62 63 64 65 65 65 65 65 64 63 62 62 61 60 59 59 59 58 57 57 57 57 56 56 56 56 56 57 57 58 57 58 59 60 60 60 61 62 62 62 62 62 62 61 61 62 62 62 62 63 63 64 66 67 69 71 73 75 76 76 77
52 53 53 54 54 53 52 52 53 53 53 54 55 55 56 57 57 59 61 60 60 61 62 62 62 63 64 65 66 66 67 67 66 65 64 65 65 64 63 63 63 62 61 60 60 59 59 58 58 57 57 58 59 59 59 59 59 60 60 59 59 60 61 61 62 62 62 62 62 62 62 62 62 63 63 64 65 66 68 70 72 74 75 76 76 76
Wind_Direction
229 230 232 233 236 237 237 237 235 235 235 233 232 232 233 233 232 235 235 229 233 237 235 236 238 233 232 233 233 231 229 231 231 228 227 227 225 219 213 214 225 230 231 237 246 254 258 258 260 260 256 252 250 251 251 255 258 259 263 257 243 241 244 246 251 260 265 249 230 223 219 221 239 246 250 259 266 270 276 278 281 288 292 296 299 302
227 229 230 231 232 233 234 234 233 234 235 234 232 231 232 232 232 235 235 229 231 236 235 235 235 231 230 230 229 228 225 230 234 230 226 226 226 222 220 222 229 231 231 237 245 251 256 258 257 255 254 256 254 250 249 251 254 255 262 257 240 236 237 242 249 255 263 252 234 225 218 218 233 247 254 259 262 268 273 276 285 292 294 297 302 303
227 228 228 229 230 231 231 231 232 233 234 234 232 230 230 231 231 233 234 229 229 236 236 233 232 230 228 224 224 226 226 230 236 234 228 227 228 225 224 224 226 233 238 242 246 249 255 258 257 255 254 255 254 252 248 248 251 251 257 256 240 232 234 241 248 252 257 248 233 226 223 225 236 248 253 256 260 265 271 279 288 292 295 299 302 302
227 227 227 229 229 229 230 230 231 232 233 233 232 231 231 232 231 232 234 230 226 234 235 229 228 229 225 220 220 223 226 227 230 233 231 229 228 227 225 221 223 235 243 246 249 251 254 256 257 258 258 254 251 251 247 244 247 246 250 252 239 233 236 241 245 248 254 247 232 225 227 233 240 247 252 255 259 264 273 283 289 292 295 299 299 299
223 223 225 227 228 228 228 229 231 233 234 234 233 231 230 232 232 232 234 229 224 231 233 226 224 227 223 218 217 219 222 223 224 228 231 229 228 228 223 216 222 239 246 248 252 253 254 255 258 261 262 256 250 249 244 240 241 241 244 244 236 234 238 241 242 247 255 249 233 226 231 237 241 248 253 256 260 266 275 283 287 293 296 297 298 298
221 221 222 224 225 226 227 229 230 232 234 233 233 231 230 232 232 231 232 227 223 230 232 224 222 224 223 219 216 215 216 219 222 224 227 228 227 229 223 215 222 241 247 250 253 253 253 255 259 261 260 255 249 247 242 240 240 241 242 238 232 233 238 240 242 250 257 247 232 230 236 241 243 248 253 258 265 271 277 283 288 293 295 295 297 298
221 220 221 222 223 225 226 227 228 231 232 232 232 233 230 232 232 230 230 226 224 230 230 222 221 222 221 218 216 215 215 217 220 223 224 226 228 229 225 221 226 239 247 252 252 251 253 257 259 259 256 254 250 246 241 239 239 240 240 235 231 235 240 243 245 249 252 241 232 236 242 245 246 250 256 263 269 275 281 286 289 292 293 295 297 297
220 220 220 221 222 223 223 225 227 231 232 231 232 232 229 230 231 229 228 225 224 228 227 221 220 221 220 219 217 216 217 216 217 219 221 224 227 225 221 222 229 238 246 251 252 252 255 257 259 259 255 252 251 246 239 238 238 239 238 235 234 239 244 248 247 246 245 238 238 245 250 252 254 256 262 268 273 278 283 286 288 291 293 295 296 297
221 220 220 221 222 223 223 223 226 230 231 229 231 231 228 230 231 229 227 226 226 228 226 222 221 221 220 220 218 215 215 216 218 218 218 221 222 220 216 218 227 238 247 253 255 255 256 257 260 260 254 250 250 246 239 236 237 238 238 238 239 242 247 250 249 244 240 240 244 250 253 256 258 261 266 271 276 280 283 285 288 291 293 294 295 296
220 219 219 219 220 221 222 222 225 228 227 227 229 229 229 231 231 229 226 225 227 228 225 224 223 221 221 221 218 215 213 215 217 216 216 218 217 218 217 214 216 230 245 253 254 253 254 256 256 256 253 249 247 245 240 236 237 238 239 241 245 247 249 250 250 247 243 243 246 249 252 258 262 266 270 274 278 281 283 286 288 291 292 293 294 294
218 217 217 217 218 219 220 220 223 225 224 226 228 229 231 232 230 229 227 225 227 227 224 223 224 222 222 222 220 218 216 217 218 216 216 218 219 220 216 210 211 224 240 247 249 250 252 254 253 253 253 250 247 245 241 237 237 238 239 241 247 251 250 248 251 252 250 249 248 249 254 261 267 272 275 278 281 283 285 287 289 291 292 292 293 294
217 216 216 216 216 217 217 219 222 223 223 226 227 228 230 230 229 229 228 227 228 228 225 223 224 223 223 223 221 221 220 219 220 220 220 222 223 222 215 211 216 227 238 243 245 248 251 252 252 252 252 249 247 244 241 238 238 238 239 241 246 251 250 249 251 253 253 253 252 254 259 264 270 274 277 279 281 283 285 287 289 290 291 292 293 294
217 216 215 214 215 216 216 219 221 220 222 226 227 228 231 232 230 229 229 228 228 227 226 225 224 223 222 223 223 224 223 221 222 223 224 226 225 222 220 219 223 228 235 240 243 246 249 250 251 251 251 249 246 244 241 239 239 239 240 243 247 251 250 249 251 251 251 253 256 261 266 269 272 274 276 278 280 283 284 286 288 289 290 291 292 292
218 216 215 214 215 217 218 220 221 222 226 229 230 231 235 237 234 232 232 232 231 229 228 227 226 224 223 223 223 225 226 224 225 226 226 228 227 223 223 223 224 228 234 239 242 245 247 249 251 251 251 250 248 245 242 240 240 241 242 244 248 251 247 246 249 249 250 253 259 265 270 271 272 274 276 278 281 283 284 286 287 288 289 290 291 292
218 218 216 216 217 218 219 220 221 223 227 230 231 231 234 235 232 231 233 233 232 231 230 230 228 226 224 224 223 226 227 225 224 225 225 228 231 228 226 227 228 231 236 239 241 244 247 250 252 252 251 251 250 248 245 243 243 244 245 246 248 249 245 243 245 248 252 257 262 266 268 269 271 274 276 278 280 282 284 285 287 288 289 289 291 292
216 217 216 216 216 216 217 218 218 221 225 227 228 228 230 233 230 228 229 229 228 228 228 229 229 227 225 225 224 225 228 228 226 226 226 227 230 230 228 230 232 234 237 240 242 244 247 250 252 253 252 250 250 250 248 245 245 246 248 248 247 247 244 243 245 249 254 259 262 265 266 268 270 273 275 278 280 282 284 285 286 287 288 290 292 293
213 214 213 213 213 213 214 216 217 221 225 227 228 227 229 232 230 227 227 228 228 228 227 227 228 228 226 226 225 225 227 230 229 226 225 226 229 232 232 233 235 237 239 241 243 245 246 248 250 252 251 251 250 250 250 248 247 248 249 250 249 248 246 245 247 250 253 256 260 262 265 267 269 272 275 277 279 281 283 284 286 287 289 291 292 294
210 210 210 211 213 212 214 216 216 220 225 226 227 227 228 229 229 227 227 229 230 229 228 228 228 228 228 227 226 225 227 230 230 227 228 229 232 235 237 236 237 240 242 241 242 243 244 246 248 249 251 252 251 250 251 251 250 249 250 251 252 252 251 249 249 251 253 256 258 261 264 266 269 271 274 276 278 280 282 284 286 288 290 292 293 295
207 207 207 209 211 210 213 215 215 219 225 224 223 225 228 230 231 230 229 231 232 232 231 232 231 230 230 230 228 226 226 229 229 229 231 232 233 236 237 237 237 240 242 243 242 243 244 246 248 249 251 252 251 251 251 251 252 251 251 252 253 254 254 254 254 254 255 257 259 262 265 267 269 272 274 276 278 280 282 285 287 289 291 293 294 296
207 206 205 207 209 210 213 214 214 219 224 223 222 226 229 231 233 232 230 231 233 233 232 234 233 231 231 232 231 229 227 226 225 227 230 233 235 237 238 238 239 241 243 244 246 246 247 248 249 250 251 251 251 251 251 251 251 252 252 253 253 254 255 256 257 258 258 260 261 264 266 268 271 273 276 278 280 282 284 286 289 290 292 294 295 296
207 206 204 207 209 210 212 212 213 218 223 223 224 228 231 232 233 232 230 230 231 231 231 233 232 230 231 231 231 233 231 227 226 228 231 233 235 237 238 239 241 242 244 246 249 250 250 249 249 251 251 250 251 252 252 252 252 252 253 253 254 255 256 257 259 260 262 263 265 266 268 271 273 275 278 280 282 284 286 288 290 291 292 294 294 295
207 205 204 207 208 208 210 211 213 217 221 220 221 227 230 231 232 232 230 230 231 231 231 233 231 229 231 231 229 232 231 227 226 229 230 232 235 237 239 241 242 243 245 247 249 250 251 251 251 251 250 251 253 253 253 253 253 253 254 255 256 256 257 259 261 263 265 267 268 270 272 274 276 278 280 282 284 286 287 288 290 291 292 293 294 295
207 205 206 208 207 207 208 210 214 217 219 219 220 225 228 229 231 232 231 231 232 232 232 232 230 228 230 231 229 230 232 228 226 228 231 234 237 239 239 241 241 240 244 247 248 249 251 251 252 252 252 253 254 254 253 254 254 255 255 257 258 259 260 261 263 266 268 270 271 273 275 277 279 280 282 283 285 286 287 288 290 291 291 292 293 294
204 205 207 208 207 207 208 209 212 216 218 220 223 226 228 229 230 230 229 229 228 229 230 229 229 229 229 231 231 230 233 232 228 228 232 235 237 238 238 239 239 240 244 248 249 250 250 252 253 253 254 255 255 255 255 255 255 256 257 258 260 262 263 264 266 268 270 272 273 275 277 278 280 281 282 283 284 285 287 288 289 289 290 291 293 294
203 203 206 207 207 209 211 212 214 216 218 221 224 227 229 231 231 228 225 225 224 225 228 227 226 228 228 229 231 231 232 234 231 229 231 235 236 236 236 236 238 241 245 248 249 249 250 252 253 253 254 255 256 256 257 257 257 257 258 259 261 263 265 266 267 269 270 272 274 275 277 278 279 280 281 282 283 284 285 287 288 289 290 292 294 296
203 202 204 206 208 212 215 218 221 220 221 223 225 227 230 232 233 230 228 228 226 227 230 229 227 226 225 226 228 230 231 232 231 228 229 232 235 235 235 236 238 242 246 248 250 250 251 252 254 255 255 256 257 257 258 258 259 259 260 260 262 264 266 267 268 270 271 273 274 275 277 278 278 279 280 282 283 284 286 287 288 290 291 293 295 297
202 201 202 204 207 210 213 216 219 220 221 226 227 228 231 233 232 231 231 232 231 229 231 233 232 228 227 228 228 229 230 231 231 230 229 232 236 237 239 240 241 241 243 247 251 253 254 254 255 256 257 258 258 258 259 260 261 261 262 263 264 265 266 268 269 271 272 274 275 276 277 278 279 280 281 283 284 286 287 288 290 291 293 295 297 298
202 201 202 205 206 208 210 210 213 217 221 225 227 227 231 233 233 231 231 231 231 229 229 232 233 228 227 230 230 231 231 231 232 231 229 231 236 240 242 243 243 241 242 245 250 253 254 255 256 258 259 259 259 259 260 262 262 263 263 264 266 266 267 268 270 271 273 274 276 277 278 279 280 281 283 284 286 287 289 290 292 293 295 296 298 299
201 201 204 206 206 207 209 210 212 216 220 223 225 227 231 234 232 230 229 230 230 229 228 231 232 228 224 226 228 228 229 229 231 232 230 232 236 240 242 243 243 243 243 245 248 251 253 254 256 259 260 260 261 261 262 263 263 264 265 266 267 268 269 270 271 272 274 275 277 278 279 280 281 282 284 285 287 289 290 292 293 295 296 297 298 299
201 202 204 206 207 209 211 210 211 215 219 221 223 226 230 231 229 227 227 228 228 228 227 229 232 229 224 224 226 227 227 228 232 234 234 235 236 238 241 242 243 244 244 246 249 250 252 254 257 259 260 261 261 262 263 264 265 266 266 267 268 269 270 271 273 274 275 277 278 279 280 281 282 283 285 287 289 290 292 293 295 296 297 298 299 299
201 203 205 207 208 210 213 213 214 218 220 220 221 224 228 229 228 228 228 229 230 229 227 228 229 230 227 224 225 229 230 230 233 236 237 239 241 242 244 246 246 246 246 247 249 250 252 254 256 258 259 261 261 262 263 265 266 267 268 268 269 270 272 273 274 275 276 277 278 279 280 282 283 285 287 288 290 291 293 294 295 296 297 298 299 300
202 203 206 209 209 211 214 215 218 222 224 224 226 228 230 231 229 228 229 230 231 231 230 229 230 231 231 227 226 229 233 235 237 238 239 241 244 246 247 249 250 250 250 250 250 251 252 252 254 256 258 260 261 262 264 266 267 268 268 269 270 271 273 274 275 276 277 278 280 281 282 283 284 286 288 289 291 292 293 294 295 296 297 298 299 300
204 205 208 210 211 213 214 214 218 222 225 226 229 231 232 232 230 230 230 229 230 232 231 231 231 233 234 233 230 231 235 239 241 242 242 243 245 248 250 251 254 255 255 255 255 254 254 254 256 257 259 261 262 264 265 267 267 268 269 270 271 272 273 274 275 277 278 279 281 282 283 284 285 287 288 290 291 292 293 294 295 296 297 298 300 301
204 207 210 212 212 213 215 217 220 222 223 225 228 229 230 230 229 229 231 230 231 233 233 233 233 234 235 237 236 233 236 241 243 244 246 247 249 251 252 254 255 256 257 258 258 258 258 259 259 261 262 263 264 266 267 267 268 269 271 271 272 273 273 274 276 277 278 280 281 282 283 284 286 287 288 289 291 292 293 294 295 296 297 299 300 301
202 205 210 211 212 214 216 218 220 221 221 223 226 229 230 230 230 230 232 233 233 235 236 236 236 236 237 238 239 237 237 241 244 245 246 248 249 251 253 254 255 256 256 257 257 258 260 261 262 264 265 266 266 267 268 268 270 270 271 271 272 273 274 275 276 277 278 280 281 282 283 284 286 287 288 289 291 292 293 294 295 296 298 299 300 301
204 207 210 211 212 215 216 217 218 219 221 223 226 229 230 231 231 231 233 234 235 235 236 236 237 237 237 238 239 239 239 241 244 246 247 247 248 249 251 253 255 255 256 256 258 260 262 263 264 265 266 267 268 268 269 269 270 270 270 271 272 273 274 275 276 277 278 279 280 281 282 284 285 287 288 289 291 292 293 294 295 296 298 299 300 301
207 210 213 214 215 216 217 217 218 220 223 226 229 230 230 230 231 230 231 233 234 234 235 236 237 237 237 237 238 239 240 242 244 245 246 247 248 249 251 254 255 256 256 258 260 262 263 264 265 266 267 267 268 268 269 269 270 270 271 271 272 272 273 274 275 276 277 278 279 280 282 283 285 287 288 289 291 292 293 294 295 297 298 299 300 301
208 212 215 218 219 220 220 221 222 224 226 228 231 232 231 231 231 231 232 233 235 236 236 237 238 238 238 239 239 240 241 243 243 244 245 247 249 250 251 253 255 256 257 260 262 263 264 265 266 267 268 268 269 270 270 270 270 271 271 272 272 273 274 274 275 276 277 278 279 281 282 284 286 287 288 289 290 291 293 294 295 297 298 299 300 301
211 213 215 218 220 222 223 224 225 227 228 230 232 233 233 233 232 232 233 233 235 237 238 239 240 240 241 241 241 242 243 243 243 244 246 247 249 250 252 254 256 258 259 260 262 264 265 266 266 267 268 269 270 270 270 271 272 272 272 272 273 274 274 275 276 277 278 279 280 282 283 285 286 287 288 289 290 291 293 294 296 297 298 299 300 301
214 216 218 220 221 222 223 223 225 227 229 231 233 234 234 234 234 235 235 235 235 237 238 241 242 243 244 244 244 244 244 244 245 246 247 248 249 251 253 256 258 259 260 261 262 264 265 266 266 267 268 269 269 270 271 271 272 272 272 273 274 275 276 277 278 279 280 281 282 283 284 286 287 288 288 289 291 292 293 295 296 297 298 299 300 302
215 217 219 221 222 223 223 224 226 227 228 231 232 233 235 236 236 237 237 237 237 237 239 241 243 245 247 248 246 246 247 248 249 250 250 251 251 252 254 257 259 260 261 263 264 264 265 265 266 267 268 269 269 270 271 271 271 272 273 274 276 277 278 279 280 281 282 283 283 284 285 286 287 288 289 290 292 293 293 294 295 296 297 299 300 302
215 217 220 221 223 225 225 226 228 228 229 231 233 234 236 237 238 239 239 239 239 239 240 242 244 245 247 248 247 248 250 252 252 252 252 253 253 255 256 258 260 261 262 263 264 264 264 265 266 268 268 269 269 270 271 271 272 273 274 275 277 278 279 280 281 282 283 284 284 285 286 287 288 289 290 291 291 292 293 294 295 296 297 299 300 302
215 217 220 222 223 225 227 228 230 231 232 234 236 237 238 239 240 240 240 240 240 241 242 243 244 246 247 247 248 250 252 252 251 251 252 253 255 257 258 260 261 262 263 263 263 264 265 267 268 268 269 269 270 271 271 272 273 274 275 277 278 278 280 281 282 282 283 283 284 285 286 287 288 288 289 290 290 291 292 293 295 296 297 299 300 301
217 219 221 223 225 227 229 231 232 233 234 237 239 239 240 240 241 241 241 242 242 243 244 245 246 247 248 249 250 250 250 251 252 253 254 255 256 257 258 260 262 262 262 263 264 265 266 267 268 268 269 270 271 272 272 273 273 275 276 277 277 278 279 280 281 281 281 282 283 284 285 286 287 288 288 289 290 291 292 293 295 296 297 299 300 301
219 220 223 225 227 229 231 232 233 233 235 237 239 241 241 242 242 243 243 243 244 243 244 246 247 248 249 250 250 250 251 252 254 255 256 255 255 256 256 259 261 262 262 263 264 265 266 267 267 268 269 270 271 271 272 272 273 275 275 276 276 277 278 279 279 279 280 281 283 284 285 286 287 288 288 289 290 291 292 293 295 296 297 298 300 301
220 222 224 226 228 229 230 232 234 235 237 239 240 242 243 244 244 244 244 244 245 244 244 245 247 248 248 249 250 251 252 253 253 254 255 256 256 256 255 257 259 261 261 262 263 265 266 266 267 267 268 270 270 271 271 272 274 275 275 276 276 277 278 279 279 279 281 282 284 285 286 287 287 288 289 289 290 291 292 293 294 296 297 298 300 301
222 224 226 228 230 231 232 233 236 238 240 241 242 243 244 244 245 245 244 244 245 245 245 246 247 248 248 249 250 251 252 252 252 252 254 255 256 256 256 255 257 258 260 262 264 265 266 266 266 267 267 268 269 270 271 272 274 274 275 275 276 277 278 279 279 280 282 283 284 285 286 287 287 288 289 289 290 291 292 293 294 295 296 298 299 301
224 226 228 230 232 233 234 235 237 239 241 242 243 244 245 246 246 247 246 246 247 247 247 247 248 249 249 249 249 251 251 252 251 252 252 253 255 256 256 256 257 259 261 263 264 264 265 265 266 267 268 268 269 269 270 271 272 273 273 274 276 277 277 278 279 280 281 283 283 284 285 285 287 287 288 289 290 291 291 292 293 294 295 297 299 301
225 227 228 230 233 235 235 236 239 241 242 243 244 245 246 247 247 248 250 251 251 251 250 250 250 250 250 250 250 250 251 252 252 252 252 252 252 254 255 256 258 259 261 262 262 263 264 265 266 267 268 268 269 270 270 271 271 272 272 273 275 276 276 277 278 279 280 281 281 282 283 284 286 287 287 288 289 290 291 291 292 293 295 297 299 301
227 229 230 232 234 236 236 238 240 241 243 244 245 246 247 248 250 251 252 253 254 254 253 252 252 251 251 251 251 251 252 252 253 253 253 253 252 253 254 255 257 259 260 261 262 263 263 264 265 266 267 268 268 268 269 270 271 271 272 273 274 274 275 276 277 277 278 279 280 281 282 283 285 286 286 287 288 289 289 290 291 293 295 297 299 301
231 233 234 235 236 237 238 240 241 242 244 245 245 246 247 249 251 253 254 255 255 256 256 255 254 253 253 252 253 253 253 254 254 254 254 255 255 255 255 256 258 259 261 262 262 263 264 265 265 266 266 266 266 267 268 269 270 270 271 273 273 274 274 275 276 276 277 278 278 280 281 282 283 284 285 286 287 287 288 289 291 293 295 297 299 301
Height
10579 10584 10597 10614 10624 10628 10631 10635 10640 10640 10639 10643 10649 10655 10659 10664 10670 10670 10677 10690 10688 10686 10694 10697 10704 10716 10718 10717 10720 10724 10728 10729 10731 10736 10739 10742 10745 10750 10756 10757 10754 10753 10756 10759 10760 10760 10761 10763 10765 10766 10765 10764 10764 10766 10769 10771 10773 10774 10773 10772 10773 10774 10774 10773 10773 10773 10774 10775 10773 10772 10773 10773 10774 10771 10765 10763 10761 10760 10760 10760 10760 10759 10758 10757 10757 10756
10571 10585 10605 10616 10617 10617 10620 10625 10630 10631 10632 10637 10644 10650 10654 10659 10665 10667 10673 10684 10684 10682 10689 10696 10705 10711 10712 10715 10718 10720 10723 10724 10726 10730 10734 10736 10738 10743 10747 10748 10748 10750 10754 10755 10755 10754 10755 10758 10760 10761 10760 10758 10758 10760 10764 10767 10769 10770 10769 10769 10770 10770 10768 10767 10768 10769 10771 10771 10769 10768 10768 10768 10767 10764 10760 10759 10758 10757 10757 10757 10756 10754 10753 10753 10752 10751
10574 10594 10607 10606 10604 10607 10612 10618 10622 10624 10626 10632 10638 10643 10649 10655 10660 10663 10667 10676 10681 10679 10684 10695 10703 10705 10709 10714 10715 10715 10718 10719 10721 10724 10728 10730 10732 10737 10740 10743 10747 10748 10748 10748 10749 10749 10749 10753 10755 10755 10755 10753 10753 10756 10760 10762 10764 10765 10765 10765 10765 10764 10763 10763 10764 10765 10766 10767 10765 10763 10762 10762 10760 10757 10756 10756 10755 10754 10754 10753 10751 10750 10749 10748 10747 10746
10583 10597 10597 10592 10594 10601 10607 10612 10615 10618 10620 10627 10633 10640 10648 10651 10655 10660 10661 10671 10680 10675 10678 10693 10699 10701 10708 10711 10711 10713 10714 10715 10717 10718 10722 10725 10727 10731 10735 10740 10744 10743 10742 10743 10743 10743 10744 10747 10749 10751 10751 10749 10749 10751 10754 10757 10758 10760 10760 10760 10760 10760 10759 10759 10760 10760 10761 10762 10761 10759 10757 10756 10754 10753 10752 10752 10751 10751 10749 10748 10746 10745 10744 10743 10742 10741
10578 10583 10580 10581 10588 10595 10600 10605 10610 10613 10617 10624 10630 10638 10645 10646 10652 10657 10655 10666 10675 10668 10673 10691 10697 10699 10703 10706 10708 10710 10711 10712 10714 10714 10717 10720 10723 10726 10732 10738 10740 10738 10738 10738 10738 10739 10739 10741 10744 10746 10746 10745 10746 10746 10748 10751 10753 10754 10755 10756 10756 10755 10755 10755 10756 10755 10755 10757 10756 10754 10753 10750 10748 10748 10748 10748 10747 10746 10745 10743 10742 10740 10739 10738 10737 10735
10564 10566 10568 10574 10581 10588 10595 10602 10607 10609 10612 10621 10628 10635 10642 10643 10647 10647 10646 10659 10669 10663 10672 10690 10693 10693 10697 10700 10703 10706 10707 10709 10711 10713 10715 10719 10721 10724 10730 10735 10737 10736 10734 10733 10734 10734 10735 10737 10740 10741 10742 10742 10743 10742 10743 10745 10748 10751 10752 10752 10752 10751 10750 10750 10751 10751 10751 10751 10751 10750 10748 10746 10744 10744 10744 10744 10743 10742 10741 10739 10737 10735 10733 10732 10731 10730
10552 10557 10562 10569 10576 10584 10591 10597 10602 10603 10607 10619 10627 10634 10639 10637 10635 10636 10642 10658 10665 10661 10671 10684 10686 10687 10690 10694 10698 10700 10703 10706 10709 10712 10714 10717 10720 10724 10729 10734 10737 10734 10729 10728 10728 10729 10732 10734 10735 10737 10738 10740 10740 10739 10738 10740 10744 10746 10747 10748 10749 10748 10747 10746 10746 10747 10747 10746 10746 10745 10743 10741 10739 10740 10740 10739 10739 10737 10735 10733 10731 10730 10728 10727 10726 10725
10546 10553 10559 10565 10572 10579 10585 10592 10597 10599 10606 10619 10625 10628 10630 10624 10623 10631 10643 10655 10658 10655 10664 10676 10679 10682 10686 10689 10693 10696 10700 10704 10707 10709 10711 10713 10716 10722 10729 10735 10737 10733 10726 10723 10724 10726 10728 10730 10731 10733 10734 10737 10737 10736 10736 10737 10739 10741 10742 10744 10745 10744 10743 10742 10742 10743 10743 10742 10741 10740 10739 10737 10737 10737 10736 10735 10734 10732 10730 10728 10726 10725 10723 10722 10720 10719
10544 10550 10557 10562 10569 10576 10582 10590 10594 10595 10605 10617 10619 10618 10617 10614 10620 10633 10642 10649 10650 10650 10659 10670 10674 10678 10683 10685 10688 10693 10698 10701 10703 10704 10706 10709 10713 10720 10727 10731 10733 10730 10723 10719 10719 10721 10723 10725 10728 10728 10729 10732 10733 10732 10733 10733 10734 10735 10737 10739 10740 10740 10739 10738 10739 10739 10738 10737 10736 10736 10735 10734 10734 10733 10732 10730 10729 10727 10725 10723 10721 10720 10718 10717 10715 10714
10536 10544 10550 10556 10564 10571 10578 10587 10587 10590 10603 10610 10608 10607 10608 10612 10622 10630 10636 10642 10642 10644 10656 10666 10670 10675 10679 10680 10686 10692 10694 10695 10697 10700 10703 10707 10711 10717 10722 10724 10727 10726 10719 10715 10715 10716 10718 10721 10723 10724 10725 10727 10728 10729 10729 10729 10730 10731 10732 10733 10734 10736 10735 10735 10735 10734 10733 10733 10732 10732 10731 10730 10730 10729 10727 10725 10723 10721 10720 10718 10716 10715 10714 10712 10711 10709
10527 10535 10541 10549 10559 10566 10574 10579 10577 10586 10600 10600 10598 10602 10605 10611 10618 10623 10630 10635 10634 10639 10653 10661 10665 10671 10674 10676 10684 10687 10688 10690 10694 10697 10701 10704 10707 10711 10715 10717 10719 10718 10712 10710 10711 10712 10713 10715 10717 10719 10720 10721 10723 10724 10725 10726 10726 10726 10726 10728 10730 10731 10731 10730 10730 10729 10729 10729 10729 10728 10727 10725 10724 10723 10721 10719 10717 10716 10714 10713 10711 10710 10708 10707 10705 10704
10518 10527 10537 10547 10554 10558 10564 10567 10572 10587 10593 10588 10591 10598 10601 10606 10614 10620 10626 10628 10630 10640 10652 10657 10660 10666 10669 10674 10680 10681 10683 10688 10691 10694 10697 10699 10703 10706 10708 10710 10711 10708 10705 10705 10707 10707 10708 10710 10712 10714 10715 10716 10718 10719 10720 10722 10722 10722 10722 10723 10725 10727 10726 10725 10726 10726 10725 10725 10724 10723 10722 10721 10719 10717 10715 10714 10712 10711 10710 10708 10706 10705 10703 10701 10700 10698
10518 10528 10537 10543 10545 10549 10557 10563 10572 10583 10581 10579 10589 10596 10599 10606 10614 10618 10621 10623 10630 10642 10649 10650 10653 10659 10664 10670 10674 10675 10680 10684 10686 10690 10694 10696 10699 10701 10702 10703 10702 10700 10700 10702 10703 10704 10705 10705 10707 10708 10709 10711 10713 10714 10715 10717 10718 10718 10718 10719 10720 10722 10722 10721 10721 10722 10721 10720 10719 10717 10716 10715 10714 10713 10711 10709 10708 10706 10705 10703 10701 10700 10698 10696 10695 10694
10518 10523 10526 10531 10537 10547 10558 10564 10574 10580 10578 10582 10592 10598 10602 10608 10614 10618 10620 10624 10633 10640 10642 10642 10646 10654 10660 10665 10669 10671 10675 10679 10682 10685 10689 10692 10694 10696 10697 10697 10696 10695 10696 10698 10699 10700 10701 10701 10702 10704 10705 10707 10708 10708 10710 10712 10713 10713 10714 10715 10716 10717 10717 10716 10716 10716 10716 10715 10713 10711 10710 10709 10708 10708 10706 10705 10703 10701 10700 10698 10696 10695 10693 10692 10691 10690
10509 10515 10523 10533 10544 10556 10562 10567 10576 10579 10576 10582 10590 10596 10600 10603 10610 10616 10617 10622 10629 10633 10634 10635 10641 10649 10654 10659 10664 10667 10669 10674 10678 10681 10685 10687 10687 10688 10690 10690 10690 10691 10692 10693 10695 10696 10697 10697 10698 10700 10701 10702 10703 10704 10705 10707 10708 10708 10709 10710 10711 10712 10712 10711 10711 10711 10710 10709 10708 10706 10705 10704 10703 10702 10701 10700 10698 10696 10695 10693 10692 10690 10689 10688 10687 10685
10502 10515 10529 10540 10547 10553 10556 10562 10570 10568 10568 10577 10585 10592 10597 10599 10606 10610 10610 10615 10619 10621 10625 10630 10636 10642 10648 10654 10660 10663 10665 10668 10673 10678 10682 10681 10677 10678 10681 10682 10685 10687 10688 10689 10691 10692 10693 10693 10694 10695 10696 10698 10699 10700 10701 10702 10703 10703 10704 10705 10706 10707 10707 10707 10706 10705 10705 10703 10702 10701 10700 10699 10698 10697 10696 10695 10693 10691 10690 10688 10687 10686 10685 10684 10682 10680
10503 10516 10526 10534 10537 10543 10549 10555 10560 10561 10565 10574 10583 10592 10596 10596 10600 10603 10604 10608 10612 10615 10622 10627 10631 10637 10644 10650 10655 10659 10660 10662 10669 10675 10676 10674 10671 10672 10673 10676 10680 10682 10682 10685 10686 10687 10688 10689 10689 10690 10691 10693 10695 10695 10696 10697 10698 10698 10699 10700 10701 10701 10702 10702 10701 10700 10699 10697 10696 10696 10695 10694 10693 10692 10691 10690 10689 10687 10685 10684 10683 10682 10680 10679 10677 10675
10503 10514 10523 10528 10532 10541 10545 10547 10554 10559 10563 10574 10585 10590 10588 10587 10591 10596 10600 10604 10607 10613 10619 10623 10627 10633 10639 10644 10651 10656 10655 10658 10666 10670 10668 10666 10666 10666 10666 10670 10675 10676 10677 10679 10680 10682 10683 10684 10685 10686 10686 10688 10690 10690 10691 10692 10693 10694 10694 10694 10694 10695 10695 10696 10696 10694 10693 10692 10691 10691 10691 10690 10688 10687 10687 10686 10684 10683 10681 10680 10679 10677 10676 10673 10671 10670
10499 10507 10514 10519 10525 10533 10535 10539 10552 10558 10560 10573 10582 10579 10579 10583 10588 10594 10599 10602 10606 10612 10618 10620 10624 10631 10635 10639 10645 10650 10651 10655 10661 10661 10658 10658 10659 10659 10661 10666 10669 10670 10671 10673 10675 10677 10679 10680 10681 10682 10682 10683 10684 10685 10686 10687 10688 10689 10689 10688 10688 10689 10689 10690 10690 10689 10688 10688 10688 10687 10686 10685 10684 10683 10682 10681 10679 10678 10677 10675 10674 10672 10670 10668 10666 10664
10494 10499 10506 10512 10519 10525 10529 10540 10554 10556 10558 10571 10575 10573 10577 10583 10587 10592 10598 10601 10604 10610 10615 10616 10620 10628 10632 10635 10639 10642 10645 10651 10655 10652 10650 10650 10652 10654 10657 10661 10663 10664 10665 10667 10670 10672 10674 10676 10677 10677 10677 10677 10678 10680 10681 10682 10684 10684 10683 10682 10682 10683 10684 10684 10684 10683 10683 10683 10683 10682 10681 10680 10679 10678 10677 10676 10674 10673 10672 10670 10669 10667 10665 10663 10661 10658
10488 10496 10505 10509 10514 10521 10531 10544 10553 10552 10558 10569 10572 10572 10576 10581 10585 10590 10594 10597 10600 10606 10609 10611 10617 10624 10625 10628 10633 10634 10637 10645 10648 10646 10645 10645 10647 10650 10653 10655 10657 10658 10659 10661 10663 10666 10669 10670 10671 10671 10671 10672 10673 10674 10675 10677 10678 10679 10678 10677 10677 10677 10678 10679 10679 10678 10678 10678 10677 10677 10676 10676 10675 10674 10672 10671 10669 10668 10667 10665 10663 10661 10660 10658 10655 10653
10485 10496 10503 10505 10512 10524 10535 10544 10546 10548 10556 10565 10567 10568 10572 10578 10582 10586 10590 10595 10599 10603 10605 10607 10613 10617 10617 10621 10627 10627 10630 10638 10642 10641 10641 10641 10642 10645 10648 10650 10651 10653 10654 10655 10657 10659 10662 10664 10665 10665 10665 10666 10668 10668 10670 10671 10672 10674 10673 10672 10672 10672 10673 10674 10674 10674 10673 10673 10672 10671 10671 10671 10670 10669 10668 10666 10664 10663 10661 10659 10658 10656 10654 10652 10650 10647
10485 10497 10500 10504 10516 10527 10533 10537 10540 10545 10552 10558 10560 10562 10569 10575 10577 10583 10589 10593 10595 10598 10600 10602 10606 10609 10611 10616 10620 10621 10624 10630 10635 10636 10634 10635 10637 10638 10641 10644 10645 10648 10649 10649 10651 10653 10656 10657 10658 10659 10660 10661 10662 10663 10664 10666 10667 10669 10669 10668 10668 10667 10668 10670 10670 10669 10668 10667 10667 10667 10666 10666 10665 10664 10662 10660 10659 10657 10656 10654 10653 10651 10649 10646 10644 10641
10486 10496 10499 10507 10517 10523 10526 10530 10534 10541 10548 10553 10557 10561 10567 10571 10574 10581 10585 10586 10589 10591 10592 10597 10600 10604 10608 10612 10614 10617 10619 10622 10628 10630 10628 10628 10630 10632 10635 10637 10640 10642 10643 10644 10646 10648 10649 10651 10652 10653 10654 10655 10657 10658 10660 10661 10662 10663 10663 10664 10665 10663 10664 10666 10666 10664 10663 10662 10662 10662 10661 10661 10659 10657 10656 10655 10654 10652 10651 10649 10647 10645 10643 10641 10638 10635
10486 10493 10499 10508 10515 10518 10520 10525 10531 10540 10547 10551 10556 10560 10564 10567 10571 10576 10577 10578 10582 10585 10587 10592 10596 10600 10605 10607 10609 10612 10613 10615 10621 10625 10624 10624 10624 10626 10628 10631 10634 10637 10638 10639 10641 10642 10644 10646 10647 10648 10649 10650 10652 10654 10655 10656 10658 10658 10659 10660 10662 10659 10659 10661 10661 10660 10659 10659 10658 10657 10657 10656 10654 10652 10651 10649 10648 10647 10646 10644 10642 10640 10637 10634 10632 10628
10486 10493 10501 10509 10515 10519 10524 10531 10539 10545 10546 10548 10554 10557 10560 10564 10568 10571 10572 10574 10580 10584 10586 10588 10591 10596 10600 10601 10604 10607 10607 10609 10615 10620 10621 10620 10618 10618 10621 10625 10629 10632 10634 10635 10636 10637 10639 10641 10642 10643 10644 10646 10647 10649 10650 10651 10652 10653 10653 10655 10657 10656 10654 10655 10656 10655 10655 10654 10654 10653 10652 10650 10648 10646 10645 10644 10643 10641 10640 10638 10635 10633 10630 10627 10624 10621
10485 10494 10500 10506 10512 10517 10525 10532 10537 10539 10541 10545 10551 10555 10557 10560 10564 10567 10570 10574 10579 10583 10584 10585 10588 10594 10597 10598 10600 10601 10602 10605 10609 10613 10615 10614 10612 10612 10616 10621 10625 10628 10630 10631 10631 10633 10634 10635 10637 10638 10639 10641 10642 10644 10645 10646 10647 10647 10648 10650 10652 10651 10650 10651 10651 10650 10650 10649 10648 10647 10645 10643 10641 10640 10639 10638 10637 10635 10633 10631 10628 10625 10623 10620 10617 10614
10486 10493 10498 10501 10507 10513 10519 10524 10528 10533 10537 10542 10547 10551 10552 10555 10560 10564 10568 10572 10575 10578 10581 10581 10584 10590 10594 10594 10595 10596 10599 10602 10603 10606 10609 10610 10609 10608 10612 10617 10619 10622 10625 10626 10626 10628 10629 10630 10632 10633 10634 10635 10637 10638 10640 10641 10641 10642 10643 10645 10645 10645 10645 10646 10646 10645 10645 10644 10642 10640 10638 10637 10635 10633 10632 10631 10630 10628 10626 10623 10621 10618 10615 10613 10610 10607
10485 10492 10495 10500 10505 10509 10513 10518 10524 10529 10533 10537 10543 10547 10548 10552 10558 10562 10565 10567 10569 10574 10577 10577 10579 10585 10588 10588 10589 10591 10594 10596 10598 10601 10605 10607 10606 10606 10608 10611 10613 10616 10619 10620 10621 10623 10624 10626 10628 10628 10628 10629 10631 10633 10635 10635 10635 10636 10638 10639 10639 10639 10639 10640 10640 10640 10639 10637 10636 10633 10631 10630 10628 10627 10626 10625 10623 10621 10619 10616 10614 10611 10608 10605 10602 10599
10483 10488 10491 10496 10501 10504 10509 10516 10522 10525 10529 10535 10540 10543 10544 10548 10554 10557 10559 10561 10565 10569 10572 10573 10575 10580 10582 10583 10586 10587 10589 10593 10595 10597 10599 10600 10600 10601 10602 10604 10607 10610 10613 10615 10616 10617 10620 10622 10623 10623 10623 10624 10626 10628 10629 10629 10629 10631 10632 10633 10633 10633 10633 10634 10634 10634 10632 10631 10629 10626 10625 10623 10622 10620 10620 10618 10617 10614 10612 10609 10607 10604 10601 10598 10595 10592
10478 10483 10487 10491 10497 10502 10509 10516 10519 10522 10526 10532 10536 10538 10540 10545 10550 10553 10555 10559 10562 10565 10568 10569 10571 10575 10577 10580 10583 10583 10586 10590 10590 10590 10592 10594 10594 10596 10597 10598 10601 10604 10607 10609 10611 10613 10615 10617 10617 10618 10618 10618 10621 10622 10623 10624 10624 10625 10626 10627 10626 10626 10627 10628 10628 10627 10625 10624 10622 10619 10618 10616 10615 10614 10613 10612 10610 10607 10605 10602 10600 10597 10594 10591 10588 10585
10475 10481 10485 10490 10496 10502 10509 10515 10517 10519 10524 10530 10533 10536 10539 10543 10547 10550 10552 10556 10558 10561 10564 10566 10568 10570 10572 10575 10579 10581 10583 10584 10584 10585 10588 10589 10589 10590 10591 10593 10596 10599 10602 10604 10605 10607 10609 10611 10612 10612 10613 10614 10616 10618 10619 10619 10619 10619 10619 10620 10620 10621 10622 10622 10621 10620 10619 10617 10615 10612 10610 10609 10608 10607 10606 10605 10603 10601 10598 10596 10594 10591 10588 10585 10582 10578
10475 10481 10485 10490 10497 10502 10507 10511 10513 10516 10524 10529 10532 10535 10537 10540 10543 10546 10548 10552 10554 10557 10559 10562 10564 10566 10567 10570 10575 10579 10580 10579 10578 10579 10582 10584 10586 10586 10587 10589 10591 10594 10596 10597 10598 10600 10603 10605 10606 10607 10608 10610 10611 10613 10614 10613 10613 10612 10613 10614 10614 10615 10615 10615 10614 10613 10612 10610 10608 10606 10604 10602 10602 10601 10600 10598 10596 10594 10592 10590 10587 10584 10581 10578 10575 10572
10475 10481 10484 10489 10496 10500 10503 10507 10511 10517 10524 10528 10529 10531 10532 10534 10538 10541 10543 10548 10551 10552 10555 10557 10559 10560 10563 10565 10569 10574 10576 10572 10570 10574 10578 10581 10582 10582 10582 10584 10586 10588 10589 10590 10591 10594 10596 10599 10600 10601 10603 10604 10606 10607 10607 10607 10607 10607 10608 10608 10608 10608 10608 10608 10607 10607 10605 10604 10601 10599 10597 10596 10596 10595 10593 10592 10590 10588 10586 10583 10581 10578 10575 10572 10569 10566
10473 10478 10481 10487 10493 10496 10500 10505 10511 10517 10521 10523 10524 10525 10527 10530 10534 10537 10540 10544 10547 10548 10551 10553 10554 10556 10559 10560 10562 10568 10569 10565 10565 10571 10574 10575 10576 10576 10577 10579 10580 10582 10582 10583 10585 10588 10590 10592 10593 10595 10596 10598 10600 10600 10600 10600 10601 10601 10601 10601 10601 10601 10601 10601 10601 10600 10599 10597 10595 10593 10591 10590 10589 10589 10587 10585 10584 10582 10579 10577 10574 10572 10569 10566 10563 10560
10473 10475 10477 10483 10489 10493 10499 10505 10509 10513 10515 10517 10519 10521 10524 10527 10530 10534 10538 10539 10542 10544 10546 10548 10549 10551 10554 10555 10556 10560 10561 10561 10563 10567 10569 10569 10569 10569 10571 10572 10574 10575 10575 10577 10580 10583 10584 10586 10587 10589 10590 10591 10592 10593 10593 10594 10595 10594 10594 10595 10595 10595 10595 10595 10595 10594 10592 10591 10589 10587 10585 10584 10583 10582 10580 10579 10577 10575 10573 10570 10568 10565 10562 10560 10556 10553
10473 10474 10478 10483 10488 10492 10498 10502 10505 10508 10512 10514 10516 10518 10521 10523 10526 10530 10532 10533 10536 10539 10541 10543 10544 10546 10549 10550 10550 10553 10556 10558 10562 10562 10561 10562 10563 10563 10565 10567 10569 10570 10570 10572 10575 10577 10578 10579 10581 10582 10583 10584 10585 10586 10587 10587 10587 10587 10588 10588 10589 10588 10589 10589 10588 10587 10586 10585 10583 10581 10579 10578 10577 10576 10574 10572 10570 10568 10566 10564 10561 10558 10556 10553 10550 10547
10471 10474 10478 10483 10487 10491 10496 10500 10503 10507 10509 10511 10513 10516 10518 10520 10523 10525 10526 10529 10532 10535 10537 10539 10540 10542 10544 10544 10545 10550 10554 10555 10556 10556 10555 10556 10557 10558 10560 10562 10564 10565 10566 10568 10570 10571 10572 10573 10574 10575 10576 10577 10578 10580 10580 10580 10581 10581 10581 10582 10582 10582 10582 10582 10582 10581 10580 10578 10577 10575 10573 10572 10571 10570 10568 10566 10564 10562 10559 10557 10555 10552 10549 10546 10543 10540
10469 10472 10476 10481 10485 10490 10494 10499 10501 10504 10506 10508 10510 10513 10514 10515 10517 10519 10522 10526 10528 10531 10534 10534 10535 10538 10539 10538 10543 10548 10549 10548 10549 10551 10552 10553 10552 10553 10555 10557 10558 10560 10562 10563 10565 10566 10566 10567 10568 10569 10570 10571 10572 10572 10573 10573 10574 10574 10574 10575 10575 10575 10575 10575 10575 10575 10573 10572 10571 10569 10567 10566 10565 10563 10562 10560 10557 10555 10553 10550 10548 10545 10542 10540 10537 10533
10468 10472 10476 10480 10484 10487 10491 10495 10497 10499 10503 10506 10507 10508 10509 10510 10512 10515 10518 10522 10524 10527 10529 10529 10532 10534 10532 10535 10542 10543 10540 10541 10545 10547 10548 10548 10549 10550 10551 10551 10552 10554 10556 10558 10560 10561 10560 10560 10562 10563 10564 10565 10565 10565 10566 10567 10568 10567 10567 10568 10568 10568 10568 10568 10568 10568 10566 10565 10564 10562 10561 10560 10558 10557 10555 10553 10551 10549 10546 10544 10541 10538 10536 10533 10530 10527
10467 10471 10475 10479 10481 10484 10487 10490 10492 10496 10501 10502 10502 10503 10504 10506 10507 10510 10515 10518 10521 10523 10524 10525 10528 10528 10527 10532 10537 10534 10532 10538 10543 10543 10542 10543 10545 10547 10546 10547 10548 10550 10551 10553 10554 10554 10553 10554 10556 10557 10558 10558 10558 10559 10560 10560 10560 10560 10560 10561 10561 10561 10561 10561 10561 10560 10559 10558 10557 10555 10554 10553 10552 10550 10548 10546 10544 10542 10539 10537 10534 10532 10529 10526 10524 10521
10466 10469 10472 10475 10478 10481 10484 10486 10489 10494 10497 10496 10496 10498 10500 10501 10504 10507 10511 10514 10516 10518 10520 10521 10522 10522 10523 10527 10529 10527 10530 10536 10537 10536 10537 10538 10540 10542 10542 10543 10544 10545 10546 10547 10547 10546 10546 10548 10551 10552 10552 10551 10552 10553 10554 10553 10553 10554 10554 10554 10554 10554 10554 10554 10554 10553 10552 10551 10549 10548 10548 10546 10545 10544 10542 10539 10537 10535 10533 10530 10528 10525 10523 10520 10517 10514
10462 10465 10468 10471 10474 10477 10480 10483 10487 10491 10493 10491 10491 10494 10496 10498 10500 10502 10505 10508 10511 10514 10516 10517 10517 10517 10518 10521 10522 10524 10527 10528 10527 10529 10531 10533 10536 10538 10538 10539 10540 10541 10541 10540 10539 10539 10541 10543 10545 10546 10545 10545 10546 10547 10547 10547 10547 10547 10548 10548 10547 10547 10547 10547 10547 10546 10545 10543 10543 10542 10541 10540 10539 10537 10535 10533 10531 10528 10526 10524 10521 10519 10516 10513 10511 10507
10460 10463 10465 10468 10471 10474 10477 10481 10485 10487 10488 10486 10487 10490 10492 10493 10495 10496 10500 10504 10507 10509 10511 10511 10511 10512 10513 10515 10518 10519 10519 10519 10521 10524 10526 10528 10531 10533 10533 10534 10535 10535 10535 10533 10532 10534 10536 10538 10539 10539 10538 10539 10540 10541 10540 10540 10540 10541 10542 10541 10540 10540 10541 10541 10540 10539 10538 10537 10537 10536 10535 10534 10532 10530 10528 10527 10524 10522 10520 10517 10514 10512 10509 10507 10504 10501
10457 10460 10463 10465 10468 10471 10474 10477 10479 10480 10480 10481 10482 10484 10486 10488 10490 10493 10497 10500 10501 10503 10505 10505 10504 10506 10508 10510 10510 10510 10511 10513 10516 10519 10520 10522 10524 10526 10528 10529 10529 10529 10529 10527 10527 10528 10530 10531 10532 10531 10532 10533 10534 10534 10533 10533 10534 10535 10535 10534 10533 10533 10534 10534 10533 10532 10531 10531 10531 10530 10529 10527 10526 10524 10522 10520 10518 10515 10513 10510 10508 10505 10503 10500 10497 10494
10454 10457 10459 10462 10463 10466 10469 10472 10473 10474 10476 10477 10478 10479 10481 10483 10486 10489 10492 10493 10494 10496 10498 10498 10498 10499 10503 10504 10503 10503 10505 10508 10510 10512 10514 10516 10517 10519 10522 10523 10524 10523 10523 10522 10522 10523 10524 10525 10525 10525 10526 10527 10527 10527 10526 10526 10528 10529 10528 10527 10526 10527 10528 10528 10526 10525 10525 10525 10524 10523 10522 10521 10519 10517 10515 10513 10511 10509 10506 10504 10502 10499 10497 10494 10491 10488
10451 10453 10455 10457 10458 10461 10464 10467 10468 10470 10471 10472 10473 10475 10476 10478 10480 10483 10485 10486 10487 10489 10492 10492 10492 10493 10496 10498 10497 10497 10498 10501 10503 10505 10507 10509 10511 10512 10514 10517 10518 10517 10516 10516 10518 10519 10519 10518 10518 10519 10520 10520 10520 10520 10519 10520 10522 10522 10521 10520 10520 10521 10521 10520 10519 10518 10519 10518 10518 10517 10516 10514 10513 10511 10509 10507 10505 10502 10500 10498 10495 10493 10490 10487 10484 10481
10446 10447 10449 10452 10453 10455 10459 10462 10463 10464 10465 10466 10468 10470 10471 10473 10474 10476 10478 10480 10481 10483 10485 10486 10487 10488 10489 10490 10491 10490 10491 10493 10496 10497 10500 10503 10504 10504 10506 10509 10510 10509 10509 10511 10513 10513 10513 10512 10513 10514 10514 10514 10514 10514 10513 10514 10515 10515 10514 10513 10514 10515 10514 10513 10512 10512 10512 10512 10511 10510 10509 10507 10506 10504 10502 10500 10498 10496 10494 10492 10489 10486 10484 10481 10478 10475
10439 10441 10444 10446 10447 10449 10453 10455 10456 10458 10460 10461 10462 10464 10465 10466 10468 10469 10471 10474 10475 10477 10479 10480 10481 10482 10482 10483 10483 10484 10484 10486 10488 10490 10492 10495 10497 10497 10499 10501 10502 10502 10503 10505 10506 10506 10506 10507 10507 10508 10508 10509 10508 10508 10507 10508 10509 10508 10507 10507 10508 10508 10507 10506 10506 10506 10506 10505 10504 10503 10502 10501 10499 10497 10496 10494 10492 10490 10488 10485 10483 10480 10477 10475 10472 10469
10434 10436 10439 10441 10442 10444 10448 10449 10449 10451 10454 10455 10456 10459 10460 10460 10462 10464 10465 10467 10469 10470 10472 10473 10474 10475 10475 10475 10475 10477 10478 10478 10481 10484 10486 10487 10489 10490 10492 10493 10493 10494 10495 10497 10498 10498 10499 10500 10501 10501 10502 10502 10501 10501 10501 10501 10502 10501 10500 10501 10502 10501 10500 10499 10499 10499 10499 10498 10497 10496 10495 10494 10492 10491 10489 10487 10486 10483 10481 10479 10476 10473 10471 10469 10466 10462
10429 10431 10433 10435 10437 10440 10443 10444 10444 10447 10448 10449 10451 10453 10454 10455 10457 10457 10457 10460 10462 10463 10463 10465 10466 10467 10468 10468 10468 10469 10470 10470 10473 10477 10479 10480 10481 10484 10486 10486 10486 10487 10488 10489 10490 10491 10492 10493 10494 10494 10495 10495 10494 10494 10494 10495 10495 10494 10494 10495 10495 10494 10493 10493 10492 10492 10491 10491 10490 10489 10488 10487 10485 10484 10482 10481 10479 10477 10475 10473 10470 10467 10465 10462 10459 10456